QPF
0.05 0.06 0.05 0.03 0.02 0.02 0.03 0.03 0.02 0.02 0.02 0.01 0.01 0.01 0.01 0.01 0.02 0.02 0.01 0.03 0.04 0.04 0.05 0.04 0.04 0.05 0.05 0.04 0.05 0.07 0.08 0.09 0.05 0.03 0.03 0.02 0.02 0.03 0.04 0.03 0.03 0.03 0.03
0.03 0.03 0.03 0.03 0.02 0.02 0.02 0.03 0.02 0.02 0.02 0.01 0.01 0.01 0.01 0.01 0.02 0.02 0.02 0.04 0.04 0.03 0.04 0.06 0.05 0.07 0.06 0.06 0.06 0.08 0.08 0.06 0.04 0.04 0.04 0.02 0.01 0.01 0.01 0.01 0.02 0.03 0.04
0.09 0.10 0.08 0.05 0.04 0.04 0.05 0.05 0.03 0.02 0.02 0.01 0.01 0.01 0.01 0.01 0.01 0.02 0.03 0.03 0.04 0.03 0.03 0.05 0.04 0.05 0.06 0.07 0.09 0.08 0.07 0.06 0.04 0.04 0.03 0.02 0.01 0.00 0.01 0.01 0.01 0.01 0.03
0.04 0.06 0.07 0.06 0.04 0.05 0.05 0.03 0.02 0.02 0.02 0.02 0.01 0.01 0.01 0.01 0.02 0.02 0.04 0.04 0.04 0.04 0.04 0.04 0.03 0.04 0.06 0.09 0.09 0.06 0.05 0.04 0.05 0.03 0.02 0.02 0.01 0.01 0.01 0.00 0.01 0.01 0.02
0.08 0.06 0.05 0.06 0.05 0.03 0.03 0.02 0.02 0.02 0.02 0.02 0.02 0.02 0.02 0.02 0.02 0.04 0.05 0.05 0.04 0.04 0.02 0.03 0.04 0.05 0.07 0.06 0.03 0.02 0.03 0.03 0.03 0.03 0.03 0.03 0.02 0.01 0.01 0.01 0.01 0.01 0.01
0.09 0.08 0.07 0.08 0.08 0.06 0.05 0.04 0.03 0.02 0.01 0.01 0.01 0.03 0.04 0.04 0.05 0.05 0.05 0.06 0.05 0.04 0.02 0.03 0.03 0.04 0.04 0.03 0.03 0.03 0.03 0.03 0.02 0.02 0.03 0.04 0.03 0.02 0.02 0.02 0.02 0.01 0.01
0.09 0.09 0.09 0.09 0.08 0.06 0.06 0.05 0.03 0.03 0.03 0.03 0.03 0.06 0.06 0.05 0.05 0.04 0.06 0.06 0.06 0.05 0.04 0.03 0.02 0.02 0.03 0.02 0.03 0.03 0.02 0.02 0.02 0.02 0.03 0.03 0.03 0.03 0.03 0.02 0.02 0.01 0.01
0.09 0.09 0.09 0.08 0.08 0.07 0.05 0.04 0.03 0.03 0.03 0.04 0.06 0.06 0.05 0.04 0.04 0.04 0.05 0.05 0.05 0.04 0.04 0.03 0.03 0.03 0.03 0.03 0.03 0.03 0.03 0.03 0.03 0.02 0.02 0.02 0.01 0.02 0.02 0.02 0.03 0.02 0.02
0.05 0.08 0.10 0.10 0.06 0.05 0.04 0.04 0.03 0.03 0.03 0.04 0.05 0.04 0.03 0.03 0.04 0.03 0.02 0.03 0.04 0.03 0.02 0.02 0.03 0.03 0.04 0.04 0.03 0.02 0.02 0.03 0.03 0.03 0.02 0.02 0.02 0.02 0.02 0.03 0.03 0.02 0.02
0.03 0.05 0.08 0.09 0.06 0.03 0.04 0.05 0.05 0.04 0.03 0.05 0.06 0.06 0.04 0.03 0.04 0.04 0.03 0.03 0.04 0.04 0.03 0.03 0.04 0.04 0.05 0.06 0.05 0.03 0.02 0.02 0.02 0.03 0.03 0.02 0.02 0.03 0.03 0.03 0.03 0.03 0.03
0.02 0.03 0.05 0.09 0.10 0.08 0.08 0.09 0.08 0.05 0.06 0.06 0.07 0.07 0.07 0.06 0.05 0.05 0.04 0.03 0.03 0.03 0.02 0.02 0.03 0.03 0.04 0.03 0.02 0.02 0.02 0.02 0.02 0.03 0.04 0.04 0.04 0.04 0.04 0.04 0.05 0.04 0.04
0.02 0.03 0.05 0.08 0.14 0.16 0.16 0.12 0.09 0.07 0.07 0.06 0.07 0.07 0.06 0.05 0.05 0.05 0.05 0.04 0.03 0.02 0.02 0.02 0.02 0.02 0.02 0.01 0.01 0.01 0.02 0.02 0.02 0.02 0.02 0.02 0.03 0.04 0.05 0.05 0.06 0.06 0.07
0.02 0.03 0.04 0.06 0.08 0.10 0.12 0.11 0.10 0.09 0.08 0.07 0.07 0.07 0.05 0.05 0.05 0.05 0.04 0.03 0.03 0.02 0.01 0.01 0.01 0.01 0.01 0.00 0.00 0.00 0.01 0.02 0.01 0.01 0.01 0.02 0.02 0.02 0.03 0.04 0.05 0.07 0.07
0.04 0.04 0.04 0.03 0.04 0.05 0.06 0.06 0.06 0.06 0.05 0.04 0.05 0.05 0.05 0.04 0.04 0.04 0.03 0.03 0.02 0.01 0.01 0.01 0.01 0.00 0.00 0.00 0.00 0.00 0.00 0.01 0.02 0.02 0.02 0.02 0.02 0.02 0.02 0.03 0.03 0.04 0.04
0.04 0.03 0.03 0.03 0.02 0.02 0.02 0.02 0.03 0.03 0.03 0.03 0.03 0.03 0.03 0.03 0.03 0.03 0.03 0.03 0.02 0.01 0.01 0.01 0.01 0.00 0.00 0.00 0.00 0.00 0.00 0.01 0.02 0.02 0.03 0.03 0.02 0.02 0.02 0.03 0.03 0.04 0.03
0.05 0.03 0.02 0.02 0.02 0.02 0.01 0.02 0.02 0.01 0.02 0.02 0.02 0.02 0.02 0.02 0.02 0.02 0.02 0.02 0.02 0.02 0.01 0.01 0.00 0.00 0.01 0.01 0.01 0.00 0.00 0.01 0.01 0.02 0.03 0.03 0.02 0.02 0.02 0.03 0.03 0.04 0.03
0.05 0.03 0.02 0.01 0.02 0.02 0.01 0.01 0.01 0.01 0.01 0.01 0.01 0.01 0.01 0.01 0.02 0.02 0.02 0.02 0.02 0.02 0.01 0.00 0.00 0.00 0.01 0.02 0.01 0.01 0.01 0.01 0.01 0.01 0.02 0.02 0.01 0.01 0.01 0.02 0.03 0.04 0.03
0.05 0.05 0.03 0.03 0.02 0.02 0.01 0.01 0.01 0.01 0.02 0.01 0.01 0.01 0.01 0.01 0.01 0.01 0.01 0.02 0.02 0.01 0.01 0.01 0.01 0.01 0.01 0.01 0.01 0.01 0.01 0.01 0.01 0.01 0.02 0.02 0.02 0.01 0.01 0.01 0.02 0.03 0.03
0.04 0.04 0.04 0.03 0.03 0.03 0.03 0.03 0.04 0.05 0.05 0.03 0.01 0.01 0.01 0.01 0.01 0.02 0.01 0.01 0.01 0.01 0.01 0.01 0.01 0.01 0.02 0.02 0.01 0.01 0.01 0.02 0.02 0.02 0.01 0.01 0.02 0.02 0.02 0.02 0.02 0.02 0.02
0.05 0.05 0.05 0.05 0.05 0.05 0.04 0.03 0.04 0.05 0.04 0.04 0.02 0.02 0.02 0.02 0.02 0.02 0.02 0.02 0.02 0.02 0.02 0.01 0.01 0.01 0.02 0.02 0.02 0.02 0.02 0.02 0.02 0.02 0.02 0.02 0.02 0.02 0.02 0.02 0.03 0.02 0.02
0.07 0.07 0.07 0.05 0.04 0.04 0.03 0.03 0.02 0.03 0.03 0.03 0.03 0.04 0.04 0.04 0.03 0.03 0.03 0.03 0.02 0.02 0.02 0.02 0.02 0.02 0.02 0.02 0.02 0.02 0.02 0.03 0.03 0.03 0.02 0.02 0.02 0.01 0.01 0.02 0.02 0.03 0.03
0.09 0.08 0.06 0.04 0.03 0.04 0.03 0.03 0.02 0.03 0.04 0.04 0.03 0.03 0.04 0.04 0.04 0.05 0.04 0.03 0.03 0.03 0.02 0.02 0.02 0.02 0.02 0.02 0.03 0.03 0.03 0.03 0.03 0.03 0.03 0.02 0.02 0.02 0.02 0.02 0.02 0.02 0.02
0.09 0.08 0.07 0.06 0.04 0.05 0.05 0.03 0.03 0.03 0.04 0.04 0.03 0.02 0.02 0.03 0.04 0.04 0.05 0.05 0.04 0.04 0.03 0.02 0.02 0.02 0.02 0.02 0.02 0.03 0.04 0.04 0.04 0.04 0.04 0.03 0.02 0.02 0.02 0.03 0.02 0.02 0.03
0.08 0.10 0.09 0.07 0.06 0.05 0.05 0.04 0.04 0.04 0.03 0.02 0.02 0.01 0.02 0.02 0.02 0.02 0.02 0.02 0.02 0.02 0.02 0.02 0.02 0.02 0.03 0.02 0.02 0.03 0.03 0.03 0.03 0.03 0.03 0.03 0.03 0.03 0.03 0.03 0.02 0.01 0.01
0.10 0.12 0.10 0.09 0.07 0.05 0.04 0.03 0.03 0.03 0.03 0.03 0.03 0.02 0.02 0.02 0.01 0.01 0.01 0.01 0.01 0.01 0.01 0.01 0.01 0.01 0.01 0.02 0.02 0.02 0.02 0.03 0.03 0.03 0.03 0.03 0.03 0.03 0.03 0.03 0.02 0.02 0.02
0.10 0.11 0.09 0.10 0.08 0.06 0.04 0.02 0.02 0.02 0.02 0.02 0.02 0.02 0.02 0.01 0.01 0.01 0.01 0.01 0.01 0.01 0.01 0.01 0.01 0.01 0.01 0.02 0.02 0.02 0.02 0.02 0.02 0.03 0.03 0.03 0.03 0.03 0.03 0.03 0.03 0.02 0.02
MSLP
1010.36 1010.80 1011.26 1011.71 1012.11 1012.40 1012.60 1012.68 1012.68 1012.63 1012.56 1012.50 1012.47 1012.47 1012.51 1012.58 1012.65 1012.73 1012.80 1012.86 1012.91 1012.95 1013.00 1013.05 1013.10 1013.14 1013.18 1013.20 1013.20 1013.18 1013.13 1013.06 1012.98 1012.89 1012.82 1012.76 1012.73 1012.75 1012.82 1012.96 1013.17 1013.45 1013.79
1009.67 1010.08 1010.51 1010.94 1011.33 1011.65 1011.87 1012.01 1012.06 1012.07 1012.04 1012.01 1011.99 1012.00 1012.03 1012.09 1012.16 1012.23 1012.30 1012.36 1012.41 1012.44 1012.47 1012.50 1012.51 1012.52 1012.51 1012.50 1012.47 1012.43 1012.38 1012.32 1012.25 1012.19 1012.14 1012.11 1012.10 1012.13 1012.22 1012.35 1012.56 1012.82 1013.14
1008.97 1009.37 1009.79 1010.20 1010.58 1010.89 1011.14 1011.31 1011.41 1011.46 1011.48 1011.48 1011.49 1011.52 1011.56 1011.62 1011.69 1011.77 1011.84 1011.91 1011.96 1012.00 1012.02 1012.03 1012.02 1012.00 1011.96 1011.91 1011.86 1011.80 1011.73 1011.67 1011.62 1011.58 1011.55 1011.54 1011.56 1011.61 1011.70 1011.83 1012.01 1012.24 1012.52
1008.21 1008.63 1009.04 1009.44 1009.81 1010.12 1010.37 1010.56 1010.70 1010.79 1010.86 1010.90 1010.95 1011.01 1011.07 1011.15 1011.23 1011.32 1011.40 1011.48 1011.55 1011.60 1011.63 1011.63 1011.62 1011.58 1011.52 1011.45 1011.37 1011.28 1011.20 1011.14 1011.08 1011.05 1011.03 1011.04 1011.08 1011.13 1011.22 1011.34 1011.49 1011.67 1011.89
1007.35 1007.80 1008.23 1008.63 1008.99 1009.29 1009.55 1009.75 1009.92 1010.05 1010.17 1010.27 1010.36 1010.45 1010.55 1010.66 1010.76 1010.87 1010.97 1011.07 1011.16 1011.23 1011.28 1011.30 1011.29 1011.25 1011.18 1011.09 1010.99 1010.88 1010.78 1010.69 1010.62 1010.58 1010.57 1010.58 1010.61 1010.67 1010.75 1010.84 1010.95 1011.07 1011.21
1006.38 1006.89 1007.35 1007.76 1008.11 1008.41 1008.67 1008.90 1009.09 1009.27 1009.43 1009.58 1009.73 1009.88 1010.02 1010.16 1010.30 1010.43 1010.56 1010.69 1010.81 1010.91 1010.98 1011.03 1011.04 1011.00 1010.94 1010.83 1010.71 1010.57 1010.44 1010.32 1010.22 1010.16 1010.13 1010.12 1010.15 1010.19 1010.24 1010.29 1010.35 1010.41 1010.47
1005.37 1005.94 1006.43 1006.86 1007.22 1007.52 1007.79 1008.03 1008.26 1008.48 1008.70 1008.92 1009.13 1009.33 1009.52 1009.70 1009.88 1010.05 1010.21 1010.37 1010.51 1010.65 1010.76 1010.83 1010.86 1010.84 1010.78 1010.66 1010.51 1010.35 1010.17 1010.01 1009.87 1009.77 1009.70 1009.67 1009.66 1009.67 1009.69 1009.70 1009.70 1009.69 1009.68
1004.41 1005.04 1005.57 1006.02 1006.39 1006.70 1006.98 1007.25 1007.52 1007.79 1008.06 1008.34 1008.62 1008.88 1009.13 1009.36 1009.58 1009.78 1009.97 1010.16 1010.33 1010.49 1010.63 1010.73 1010.78 1010.77 1010.70 1010.58 1010.41 1010.20 1009.99 1009.77 1009.59 1009.43 1009.31 1009.23 1009.18 1009.15 1009.12 1009.08 1009.02 1008.95 1008.86
1003.64 1004.31 1004.87 1005.33 1005.72 1006.04 1006.34 1006.64 1006.95 1007.27 1007.61 1007.95 1008.29 1008.62 1008.92 1009.20 1009.45 1009.68 1009.90 1010.10 1010.29 1010.47 1010.62 1010.73 1010.79 1010.78 1010.71 1010.57 1010.37 1010.13 1009.86 1009.60 1009.35 1009.14 1008.97 1008.84 1008.74 1008.65 1008.57 1008.48 1008.36 1008.22 1008.06
1003.16 1003.84 1004.42 1004.89 1005.29 1005.63 1005.95 1006.27 1006.62 1006.99 1007.38 1007.79 1008.19 1008.57 1008.92 1009.24 1009.52 1009.77 1010.00 1010.21 1010.41 1010.58 1010.73 1010.83 1010.88 1010.87 1010.77 1010.61 1010.38 1010.10 1009.79 1009.48 1009.18 1008.91 1008.69 1008.50 1008.35 1008.21 1008.07 1007.93 1007.75 1007.56 1007.34
1003.02 1003.70 1004.28 1004.75 1005.14 1005.49 1005.83 1006.18 1006.55 1006.97 1007.41 1007.86 1008.31 1008.73 1009.12 1009.46 1009.76 1010.02 1010.25 1010.45 1010.63 1010.79 1010.91 1010.99 1011.01 1010.97 1010.85 1010.65 1010.39 1010.07 1009.73 1009.38 1009.04 1008.73 1008.45 1008.22 1008.02 1007.84 1007.65 1007.46 1007.23 1006.98 1006.71
1003.22 1003.88 1004.43 1004.88 1005.27 1005.62 1005.96 1006.33 1006.73 1007.16 1007.63 1008.11 1008.59 1009.04 1009.44 1009.80 1010.10 1010.35 1010.57 1010.74 1010.89 1011.01 1011.09 1011.13 1011.11 1011.02 1010.87 1010.64 1010.35 1010.00 1009.64 1009.26 1008.89 1008.55 1008.25 1007.99 1007.75 1007.53 1007.30 1007.06 1006.79 1006.50 1006.18
1003.68 1004.29 1004.81 1005.24 1005.61 1005.95 1006.29 1006.65 1007.06 1007.50 1007.97 1008.46 1008.94 1009.39 1009.79 1010.14 1010.44 1010.67 1010.85 1010.99 1011.10 1011.16 1011.19 1011.17 1011.10 1010.97 1010.78 1010.52 1010.20 1009.85 1009.47 1009.08 1008.71 1008.36 1008.05 1007.77 1007.51 1007.25 1007.00 1006.72 1006.42 1006.09 1005.73
1004.28 1004.84 1005.32 1005.71 1006.06 1006.38 1006.71 1007.06 1007.44 1007.87 1008.32 1008.79 1009.25 1009.68 1010.07 1010.40 1010.66 1010.87 1011.01 1011.11 1011.16 1011.17 1011.14 1011.06 1010.94 1010.76 1010.53 1010.25 1009.93 1009.57 1009.20 1008.83 1008.47 1008.13 1007.82 1007.54 1007.26 1006.99 1006.71 1006.41 1006.08 1005.72 1005.33
1004.91 1005.41 1005.84 1006.21 1006.53 1006.82 1007.13 1007.45 1007.80 1008.19 1008.61 1009.03 1009.45 1009.84 1010.19 1010.48 1010.71 1010.88 1010.98 1011.03 1011.03 1010.99 1010.90 1010.77 1010.60 1010.39 1010.13 1009.84 1009.52 1009.19 1008.84 1008.50 1008.17 1007.86 1007.56 1007.28 1007.01 1006.73 1006.43 1006.10 1005.75 1005.36 1004.95
1005.45 1005.90 1006.29 1006.63 1006.93 1007.20 1007.48 1007.77 1008.08 1008.41 1008.77 1009.14 1009.50 1009.84 1010.14 1010.39 1010.58 1010.70 1010.77 1010.78 1010.73 1010.64 1010.51 1010.34 1010.13 1009.90 1009.63 1009.35 1009.05 1008.74 1008.43 1008.13 1007.84 1007.56 1007.29 1007.02 1006.75 1006.46 1006.14 1005.80 1005.42 1005.02 1004.60
1005.85 1006.26 1006.63 1006.96 1007.24 1007.50 1007.75 1008.01 1008.27 1008.55 1008.85 1009.15 1009.45 1009.73 1009.97 1010.17 1010.32 1010.41 1010.44 1010.42 1010.34 1010.21 1010.04 1009.85 1009.62 1009.37 1009.11 1008.85 1008.58 1008.31 1008.05 1007.79 1007.54 1007.30 1007.05 1006.79 1006.51 1006.21 1005.87 1005.51 1005.11 1004.69 1004.27
1006.12 1006.52 1006.88 1007.21 1007.49 1007.75 1007.99 1008.21 1008.44 1008.67 1008.90 1009.14 1009.37 1009.59 1009.78 1009.94 1010.04 1010.10 1010.10 1010.05 1009.94 1009.79 1009.60 1009.39 1009.16 1008.92 1008.67 1008.43 1008.19 1007.97 1007.75 1007.54 1007.33 1007.11 1006.87 1006.61 1006.33 1006.00 1005.64 1005.25 1004.84 1004.41 1003.98
1006.32 1006.72 1007.09 1007.43 1007.74 1008.00 1008.23 1008.44 1008.64 1008.83 1009.01 1009.19 1009.37 1009.53 1009.67 1009.78 1009.85 1009.88 1009.85 1009.77 1009.65 1009.48 1009.28 1009.06 1008.83 1008.60 1008.37 1008.16 1007.96 1007.77 1007.60 1007.42 1007.23 1007.03 1006.79 1006.52 1006.21 1005.86 1005.47 1005.05 1004.61 1004.17 1003.75
1006.53 1006.94 1007.34 1007.70 1008.03 1008.32 1008.56 1008.76 1008.94 1009.09 1009.24 1009.37 1009.50 1009.62 1009.71 1009.78 1009.82 1009.81 1009.76 1009.66 1009.51 1009.33 1009.12 1008.90 1008.67 1008.45 1008.24 1008.06 1007.89 1007.73 1007.59 1007.43 1007.26 1007.05 1006.80 1006.51 1006.16 1005.77 1005.34 1004.89 1004.44 1003.99 1003.56
1006.81 1007.25 1007.68 1008.08 1008.43 1008.74 1008.99 1009.20 1009.37 1009.50 1009.61 1009.71 1009.80 1009.87 1009.92 1009.95 1009.95 1009.91 1009.83 1009.70 1009.54 1009.34 1009.11 1008.88 1008.66 1008.44 1008.25 1008.09 1007.94 1007.81 1007.68 1007.53 1007.35 1007.14 1006.86 1006.53 1006.15 1005.71 1005.25 1004.76 1004.29 1003.83 1003.41
1007.24 1007.70 1008.15 1008.57 1008.96 1009.28 1009.55 1009.75 1009.91 1010.03 1010.11 1010.17 1010.22 1010.25 1010.26 1010.25 1010.21 1010.13 1010.01 1009.85 1009.65 1009.43 1009.19 1008.95 1008.72 1008.51 1008.33 1008.18 1008.04 1007.92 1007.80 1007.65 1007.46 1007.22 1006.92 1006.55 1006.12 1005.64 1005.14 1004.63 1004.13 1003.67 1003.27
1007.82 1008.29 1008.76 1009.20 1009.59 1009.92 1010.18 1010.38 1010.52 1010.60 1010.66 1010.68 1010.69 1010.67 1010.64 1010.57 1010.48 1010.36 1010.20 1010.00 1009.77 1009.51 1009.25 1009.00 1008.76 1008.55 1008.38 1008.23 1008.11 1007.99 1007.87 1007.71 1007.51 1007.24 1006.90 1006.50 1006.03 1005.51 1004.98 1004.44 1003.94 1003.49 1003.11
1008.55 1009.02 1009.48 1009.91 1010.28 1010.59 1010.83 1011.00 1011.11 1011.16 1011.17 1011.15 1011.10 1011.03 1010.94 1010.82 1010.68 1010.50 1010.29 1010.04 1009.78 1009.49 1009.21 1008.94 1008.70 1008.49 1008.32 1008.18 1008.06 1007.95 1007.82 1007.66 1007.44 1007.15 1006.78 1006.34 1005.84 1005.30 1004.75 1004.20 1003.70 1003.26 1002.92
1009.38 1009.82 1010.25 1010.65 1010.99 1011.25 1011.45 1011.56 1011.61 1011.61 1011.56 1011.48 1011.37 1011.24 1011.08 1010.91 1010.71 1010.47 1010.21 1009.93 1009.62 1009.31 1009.01 1008.74 1008.49 1008.29 1008.12 1007.99 1007.88 1007.78 1007.65 1007.48 1007.25 1006.94 1006.56 1006.10 1005.57 1005.02 1004.45 1003.91 1003.42 1003.01 1002.70
1010.25 1010.66 1011.04 1011.38 1011.65 1011.85 1011.97 1012.01 1011.99 1011.91 1011.79 1011.64 1011.46 1011.26 1011.04 1010.81 1010.54 1010.26 1009.96 1009.63 1009.31 1008.98 1008.67 1008.39 1008.15 1007.95 1007.80 1007.69 1007.59 1007.49 1007.37 1007.20 1006.96 1006.65 1006.25 1005.78 1005.25 1004.69 1004.13 1003.60 1003.14 1002.77 1002.50
Thickness
5793 5791 5788 5785 5783 5780 5777 5775 5773 5772 5770 5767 5765 5763 5761 5759 5758 5755 5752 5750 5747 5744 5742 5739 5737 5735 5733 5731 5728 5725 5721 5718 5711 5712 5713 5714 5713 5711 5709 5708 5707 5706 5704
5792 5789 5785 5783 5780 5777 5775 5773 5771 5769 5767 5765 5763 5761 5759 5757 5755 5752 5749 5746 5743 5740 5738 5735 5733 5732 5728 5726 5724 5720 5718 5716 5711 5707 5706 5707 5706 5706 5704 5702 5702 5701 5700
5790 5785 5781 5778 5776 5773 5772 5771 5769 5766 5764 5762 5760 5757 5755 5754 5751 5749 5746 5743 5740 5737 5735 5732 5729 5727 5723 5721 5719 5716 5714 5713 5709 5704 5701 5701 5700 5700 5697 5696 5696 5695 5695
5787 5783 5778 5774 5772 5771 5769 5767 5765 5763 5760 5758 5757 5755 5753 5750 5748 5745 5742 5739 5736 5733 5731 5729 5726 5723 5719 5717 5715 5711 5709 5706 5702 5699 5696 5694 5693 5693 5691 5689 5687 5688 5688
5783 5779 5774 5772 5769 5767 5764 5763 5761 5759 5757 5755 5752 5750 5749 5746 5744 5741 5738 5735 5731 5728 5726 5724 5722 5719 5717 5714 5711 5707 5704 5699 5695 5692 5689 5687 5686 5685 5684 5684 5682 5681 5681
5779 5774 5771 5768 5765 5762 5760 5758 5756 5753 5751 5750 5747 5745 5744 5743 5741 5738 5734 5730 5726 5722 5719 5717 5716 5714 5711 5709 5706 5704 5700 5695 5691 5687 5684 5681 5681 5681 5680 5679 5675 5673 5672
5774 5770 5767 5764 5761 5759 5757 5754 5751 5748 5746 5744 5742 5740 5738 5737 5736 5733 5729 5725 5721 5717 5714 5711 5710 5709 5705 5702 5700 5698 5695 5693 5690 5686 5681 5679 5677 5678 5676 5673 5671 5670 5669
5769 5766 5763 5761 5758 5756 5753 5749 5747 5744 5741 5739 5737 5735 5733 5731 5729 5726 5723 5719 5715 5712 5709 5706 5703 5700 5699 5695 5692 5689 5687 5686 5684 5682 5680 5678 5677 5676 5674 5672 5669 5667 5666
5763 5761 5760 5757 5754 5751 5748 5745 5743 5740 5737 5735 5733 5730 5727 5725 5723 5720 5716 5712 5708 5705 5703 5700 5697 5694 5692 5689 5684 5680 5678 5678 5679 5678 5676 5674 5673 5672 5670 5666 5663 5659 5658
5758 5757 5755 5753 5751 5747 5745 5742 5739 5736 5732 5730 5727 5725 5722 5719 5717 5714 5710 5705 5701 5698 5695 5692 5690 5687 5684 5682 5677 5674 5670 5670 5670 5670 5669 5668 5667 5666 5665 5663 5660 5655 5653
5756 5753 5750 5748 5746 5743 5740 5737 5733 5730 5726 5723 5720 5718 5715 5713 5710 5707 5704 5698 5694 5690 5686 5684 5682 5680 5678 5675 5672 5669 5667 5666 5664 5662 5661 5660 5659 5659 5658 5658 5657 5654 5651
5750 5746 5744 5741 5740 5737 5733 5730 5727 5723 5719 5715 5712 5709 5707 5705 5703 5699 5696 5692 5688 5683 5680 5677 5675 5673 5671 5669 5667 5665 5663 5660 5657 5654 5652 5651 5651 5651 5651 5652 5652 5651 5651
5742 5739 5737 5735 5732 5729 5725 5722 5718 5715 5711 5707 5703 5700 5699 5697 5694 5692 5688 5685 5681 5677 5674 5672 5669 5666 5664 5662 5661 5659 5656 5653 5650 5647 5645 5644 5644 5644 5645 5645 5645 5645 5645
5733 5731 5728 5726 5722 5720 5717 5714 5710 5706 5703 5700 5696 5693 5691 5688 5686 5683 5679 5676 5673 5669 5665 5663 5661 5658 5656 5654 5653 5651 5649 5647 5644 5641 5639 5638 5638 5638 5637 5637 5636 5636 5635
5724 5721 5719 5717 5713 5710 5707 5704 5702 5700 5698 5694 5691 5688 5684 5681 5680 5677 5673 5669 5665 5661 5657 5653 5651 5648 5646 5645 5643 5642 5641 5639 5637 5635 5633 5631 5631 5630 5630 5630 5629 5628 5626
5715 5713 5710 5708 5705 5702 5699 5695 5694 5693 5691 5689 5687 5683 5680 5678 5674 5670 5667 5663 5659 5655 5650 5645 5642 5641 5639 5637 5636 5635 5634 5633 5631 5629 5627 5626 5624 5624 5623 5623 5621 5620 5619
5707 5705 5703 5701 5699 5695 5692 5688 5684 5683 5682 5680 5678 5676 5673 5670 5667 5663 5659 5655 5651 5647 5643 5640 5637 5635 5633 5632 5630 5629 5628 5627 5625 5623 5622 5620 5619 5618 5617 5616 5615 5613 5612
5700 5698 5696 5694 5692 5689 5686 5682 5679 5675 5673 5671 5669 5667 5665 5662 5659 5655 5651 5647 5642 5639 5637 5634 5632 5629 5627 5625 5624 5623 5622 5620 5619 5617 5616 5615 5613 5612 5610 5609 5608 5607 5606
5692 5691 5689 5688 5685 5683 5680 5676 5673 5670 5667 5664 5661 5659 5657 5654 5650 5646 5643 5639 5637 5633 5631 5628 5626 5624 5622 5620 5619 5617 5616 5614 5613 5612 5610 5609 5607 5605 5604 5603 5602 5601 5600
5684 5684 5683 5681 5678 5675 5673 5669 5666 5663 5660 5657 5655 5652 5649 5645 5641 5638 5635 5633 5631 5628 5625 5623 5621 5619 5617 5615 5613 5612 5610 5609 5608 5606 5605 5604 5602 5601 5599 5598 5596 5595 5594
5676 5676 5676 5674 5672 5669 5666 5663 5661 5658 5655 5652 5650 5648 5644 5641 5637 5634 5631 5628 5626 5623 5620 5618 5615 5613 5611 5609 5608 5606 5605 5603 5602 5601 5600 5599 5597 5596 5595 5594 5593 5591 5590
5670 5669 5668 5667 5665 5663 5661 5658 5655 5652 5649 5646 5643 5641 5637 5635 5632 5629 5626 5624 5621 5619 5616 5613 5610 5607 5606 5604 5602 5601 5599 5598 5597 5596 5595 5594 5593 5592 5590 5589 5588 5586 5586
5662 5661 5660 5659 5658 5656 5654 5651 5648 5645 5642 5640 5637 5634 5631 5628 5626 5624 5621 5618 5615 5613 5610 5607 5604 5602 5600 5599 5597 5596 5594 5593 5592 5591 5590 5589 5588 5587 5586 5584 5583 5582 5581
5654 5654 5652 5651 5650 5648 5646 5644 5642 5639 5636 5634 5631 5628 5625 5622 5620 5618 5616 5613 5610 5607 5604 5601 5598 5596 5595 5593 5592 5591 5590 5589 5588 5587 5586 5585 5584 5582 5581 5580 5579 5579 5578
5646 5646 5644 5643 5642 5640 5639 5637 5634 5632 5630 5627 5625 5622 5619 5616 5614 5612 5609 5607 5603 5600 5597 5594 5592 5591 5589 5587 5586 5585 5584 5583 5582 5582 5581 5580 5579 5578 5577 5576 5575 5575 5574
5639 5638 5636 5635 5634 5633 5631 5628 5626 5625 5622 5620 5618 5615 5613 5610 5607 5605 5602 5599 5596 5593 5591 5588 5586 5585 5583 5581 5580 5579 5578 5577 5576 5576 5576 5575 5574 5573 5573 5572 5572 5571 5570